Time,TemperatureF,DewpointF,PressureIn,WindDirection,WindDirectionDegrees,WindSpeedMPH,WindSpeedGustMPH,Humidity,HourlyPrecipIn,Conditions,Clouds,dailyrainin,SolarRadiationWatts/m^2,SoftwareType,DateUTC
2013-08-13 00:13:00,73.0,73.0,-100.00,WSW,238,4.0,6.0,99,0.00,,,0.01,0.000000,,2013-08-13 04:13:00,
2013-08-13 00:23:00,73.0,73.0,-100.00,WSW,238,4.0,6.0,99,0.00,,,0.01,0.000000,,2013-08-13 04:23:00,
2013-08-13 00:33:00,73.0,73.0,-100.00,WSW,238,4.0,6.0,99,0.00,,,0.01,0.000000,,2013-08-13 04:33:00,
2013-08-13 00:42:00,73.0,73.0,-100.00,WSW,238,4.0,6.0,99,0.00,,,0.01,0.000000,,2013-08-13 04:42:00,
2013-08-13 01:12:00,73.0,73.0,-100.00,SW,231,4.0,7.0,99,0.00,,,0.01,0.000000,,2013-08-13 05:12:00,
2013-08-13 01:22:00,73.0,73.0,-100.00,SW,231,4.0,7.0,99,0.00,,,0.01,0.000000,,2013-08-13 05:22:00,
2013-08-13 01:32:00,73.0,73.0,-100.00,SW,231,4.0,7.0,99,0.00,,,0.01,0.000000,,2013-08-13 05:32:00,
2013-08-13 01:42:00,73.0,73.0,-100.00,SW,231,4.0,7.0,99,0.00,,,0.01,0.000000,,2013-08-13 05:42:00,
2013-08-13 02:11:00,72.0,72.0,-100.00,WSW,238,4.0,8.0,99,0.00,,,0.01,0.000000,,2013-08-13 06:11:00,
2013-08-13 02:21:00,72.0,72.0,-100.00,WSW,238,4.0,8.0,99,0.00,,,0.01,0.000000,,2013-08-13 06:21:00,
2013-08-13 02:32:00,72.0,72.0,-100.00,WSW,238,4.0,8.0,99,0.00,,,0.01,0.000000,,2013-08-13 06:32:00,
2013-08-13 02:42:00,72.0,72.0,-100.00,WSW,238,4.0,8.0,99,0.00,,,0.01,0.000000,,2013-08-13 06:42:00,
2013-08-13 03:12:00,72.0,71.0,-100.00,SW,229,5.0,8.0,98,0.00,,,0.01,0.000000,,2013-08-13 07:12:00,
2013-08-13 03:21:00,72.0,71.0,-100.00,SW,229,5.0,8.0,98,0.00,,,0.01,0.000000,,2013-08-13 07:21:00,
2013-08-13 03:33:00,72.0,71.0,-100.00,SW,229,5.0,8.0,98,0.00,,,0.01,0.000000,,2013-08-13 07:33:00,
2013-08-13 03:42:00,72.0,71.0,-100.00,SW,229,5.0,8.0,98,0.00,,,0.01,0.000000,,2013-08-13 07:42:00,
2013-08-13 04:11:00,71.0,71.0,-100.00,SW,235,4.0,6.0,99,0.00,,,0.01,0.000000,,2013-08-13 08:11:00,
2013-08-13 04:22:00,71.0,71.0,-100.00,SW,235,4.0,6.0,99,0.00,,,0.01,0.000000,,2013-08-13 08:22:00,
2013-08-13 04:32:00,71.0,71.0,-100.00,SW,235,4.0,6.0,99,0.00,,,0.01,0.000000,,2013-08-13 08:32:00,
2013-08-13 04:42:00,71.0,71.0,-100.00,SW,235,4.0,6.0,99,0.00,,,0.01,0.000000,,2013-08-13 08:42:00,
2013-08-13 05:11:00,70.0,70.0,-100.00,WNW,282,5.0,7.0,99,0.00,,,0.01,0.000000,,2013-08-13 09:11:00,
2013-08-13 05:22:00,70.0,70.0,-100.00,WNW,282,5.0,7.0,99,0.00,,,0.01,0.000000,,2013-08-13 09:22:00,
2013-08-13 05:33:00,70.0,70.0,-100.00,WNW,282,5.0,7.0,99,0.00,,,0.01,0.000000,,2013-08-13 09:33:00,
2013-08-13 05:43:00,70.0,70.0,-100.00,WNW,282,5.0,7.0,99,0.00,,,0.01,0.000000,,2013-08-13 09:43:00,
2013-08-13 06:13:00,70.0,69.0,-100.00,WNW,293,3.0,6.0,97,0.00,,,0.01,0.000000,,2013-08-13 10:13:00,
2013-08-13 06:23:00,70.0,69.0,-100.00,WNW,293,3.0,6.0,97,0.00,,,0.01,0.000000,,2013-08-13 10:23:00,
2013-08-13 06:32:00,70.0,69.0,-100.00,WNW,293,3.0,6.0,97,0.00,,,0.01,0.000000,,2013-08-13 10:32:00,
2013-08-13 06:42:00,70.0,69.0,-100.00,WNW,293,3.0,6.0,97,0.00,,,0.01,0.000000,,2013-08-13 10:42:00,
2013-08-13 07:11:00,68.0,67.0,-100.00,WNW,302,5.0,8.0,98,0.00,,,0.01,0.000000,,2013-08-13 11:11:00,
2013-08-13 07:22:00,68.0,67.0,-100.00,WNW,302,5.0,8.0,98,0.00,,,0.01,0.000000,,2013-08-13 11:22:00,
2013-08-13 07:32:00,68.0,67.0,-100.00,WNW,302,5.0,8.0,98,0.00,,,0.01,0.000000,,2013-08-13 11:32:00,
2013-08-13 07:42:00,68.0,67.0,-100.00,WNW,302,5.0,8.0,98,0.00,,,0.01,0.000000,,2013-08-13 11:42:00,
2013-08-13 08:21:00,69.0,68.0,-100.00,West,273,3.0,7.0,97,0.00,,,0.01,29.000000,,2013-08-13 12:21:00,
2013-08-13 08:32:00,69.0,68.0,-100.00,West,273,3.0,7.0,97,0.00,,,0.01,29.000000,,2013-08-13 12:32:00,
2013-08-13 08:42:00,69.0,68.0,-100.00,West,273,3.0,7.0,97,0.00,,,0.01,29.000000,,2013-08-13 12:42:00,
2013-08-13 09:11:00,70.0,68.0,-100.00,NNW,333,5.0,8.0,95,0.00,,,0.01,123.000000,,2013-08-13 13:11:00,
2013-08-13 09:22:00,70.0,68.0,-100.00,NNW,333,5.0,8.0,95,0.00,,,0.01,123.000000,,2013-08-13 13:22:00,
2013-08-13 09:32:00,70.0,68.0,-100.00,NNW,333,5.0,8.0,95,0.00,,,0.01,123.000000,,2013-08-13 13:32:00,
2013-08-13 09:42:00,70.0,68.0,-100.00,NNW,333,5.0,8.0,95,0.00,,,0.01,123.000000,,2013-08-13 13:42:00,
2013-08-13 10:11:00,72.0,67.0,-100.00,NE,41,5.0,10.0,85,0.00,,,0.01,245.000000,,2013-08-13 14:11:00,
2013-08-13 10:22:00,72.0,67.0,-100.00,NE,41,5.0,10.0,85,0.00,,,0.01,245.000000,,2013-08-13 14:22:00,
2013-08-13 10:32:00,72.0,67.0,-100.00,NE,41,5.0,10.0,85,0.00,,,0.01,245.000000,,2013-08-13 14:32:00,
2013-08-13 10:42:00,72.0,67.0,-100.00,NE,41,5.0,10.0,85,0.00,,,0.01,245.000000,,2013-08-13 14:42:00,
2013-08-13 11:11:00,74.0,66.0,-100.00,NE,39,7.0,10.0,77,0.00,,,0.01,479.000000,,2013-08-13 15:11:00,
2013-08-13 11:22:00,74.0,66.0,-100.00,NE,39,7.0,10.0,77,0.00,,,0.01,479.000000,,2013-08-13 15:22:00,
2013-08-13 11:35:00,74.0,66.0,-100.00,NE,39,7.0,10.0,77,0.00,,,0.01,479.000000,,2013-08-13 15:35:00,
2013-08-13 11:44:00,74.0,66.0,-100.00,NE,39,7.0,10.0,77,0.00,,,0.01,479.000000,,2013-08-13 15:44:00,
2013-08-13 12:13:00,76.0,65.0,-100.00,NE,37,6.0,11.0,69,0.00,,,0.01,684.000000,,2013-08-13 16:13:00,
2013-08-13 12:24:00,76.0,65.0,-100.00,NE,37,6.0,11.0,69,0.00,,,0.01,684.000000,,2013-08-13 16:24:00,
2013-08-13 12:36:00,76.0,65.0,-100.00,NE,37,6.0,11.0,69,0.00,,,0.01,684.000000,,2013-08-13 16:36:00,
2013-08-13 12:45:00,76.0,65.0,-100.00,NE,37,6.0,11.0,69,0.00,,,0.01,684.000000,,2013-08-13 16:45:00,
2013-08-13 13:16:00,77.0,65.0,-100.00,North,1,5.0,11.0,66,0.00,,,0.01,657.000000,,2013-08-13 17:16:00,
2013-08-13 13:27:00,77.0,65.0,-100.00,North,1,5.0,11.0,66,0.00,,,0.01,657.000000,,2013-08-13 17:27:00,
2013-08-13 13:38:00,77.0,65.0,-100.00,North,1,5.0,11.0,66,0.00,,,0.01,657.000000,,2013-08-13 17:38:00,
2013-08-13 13:46:00,-999.0,-99.9,-100.00,North,1,5.0,11.0,-999,0.00,,,0.01,657.000000,,2013-08-13 17:46:00,
2013-08-13 14:15:00,77.0,61.0,-100.00,NNE,13,7.0,14.0,57,0.00,,,0.00,808.000000,,2013-08-13 18:15:00,
2013-08-13 14:25:00,77.0,61.0,-100.00,NNE,13,7.0,14.0,57,0.00,,,0.00,808.000000,,2013-08-13 18:25:00,
2013-08-13 14:37:00,77.0,61.0,-100.00,NNE,13,7.0,14.0,57,0.00,,,0.00,808.000000,,2013-08-13 18:37:00,
2013-08-13 14:44:00,77.0,61.0,-100.00,NNE,13,7.0,14.0,57,0.00,,,0.00,808.000000,,2013-08-13 18:44:00,
2013-08-13 15:14:00,77.0,62.0,-100.00,North,356,7.0,13.0,59,0.00,,,0.00,822.000000,,2013-08-13 19:14:00,
2013-08-13 15:25:00,77.0,62.0,-100.00,North,356,7.0,13.0,59,0.00,,,0.00,822.000000,,2013-08-13 19:25:00,
2013-08-13 15:36:00,77.0,62.0,-100.00,North,356,7.0,13.0,59,0.00,,,0.00,822.000000,,2013-08-13 19:36:00,
2013-08-13 15:44:00,77.0,62.0,-100.00,North,356,7.0,13.0,59,0.00,,,0.00,822.000000,,2013-08-13 19:44:00,
2013-08-13 16:15:00,76.0,61.0,-100.00,NNW,328,8.0,14.0,59,0.00,,,0.00,576.000000,,2013-08-13 20:15:00,
2013-08-13 16:22:00,76.0,61.0,-100.00,NNW,328,8.0,14.0,59,0.00,,,0.00,576.000000,,2013-08-13 20:22:00,
2013-08-13 16:32:00,76.0,61.0,-100.00,NNW,328,8.0,14.0,59,0.00,,,0.00,576.000000,,2013-08-13 20:32:00,
2013-08-13 16:45:00,76.0,61.0,-100.00,NNW,328,8.0,14.0,59,0.00,,,0.00,576.000000,,2013-08-13 20:45:00,
2013-08-13 17:11:00,75.0,61.0,-100.00,NNW,330,9.0,20.0,61,0.00,,,-99.99,494.000000,,2013-08-13 21:11:00,
2013-08-13 17:24:00,75.0,61.0,-100.00,NNW,330,9.0,20.0,61,0.00,,,-99.99,494.000000,,2013-08-13 21:24:00,
2013-08-13 17:34:00,75.0,61.0,-100.00,NNW,330,9.0,20.0,61,0.00,,,-99.99,494.000000,,2013-08-13 21:34:00,
2013-08-13 17:46:00,75.0,61.0,-100.00,NNW,330,9.0,20.0,61,0.00,,,-99.99,494.000000,,2013-08-13 21:46:00,
2013-08-13 17:47:00,73.0,61.0,-100.00,NNW,335,6.0,16.0,65,0.00,,,0.00,351.000000,,2013-08-13 21:47:00,
2013-08-13 18:13:00,73.0,61.0,-100.00,NNW,335,6.0,16.0,65,0.00,,,0.00,351.000000,,2013-08-13 22:13:00,
2013-08-13 18:23:00,73.0,61.0,-100.00,NNW,335,6.0,16.0,65,0.00,,,0.00,351.000000,,2013-08-13 22:23:00,
2013-08-13 18:35:00,73.0,61.0,-100.00,NNW,335,6.0,16.0,65,0.00,,,0.00,351.000000,,2013-08-13 22:35:00,
2013-08-13 18:47:00,72.0,60.0,-100.00,NNW,340,6.0,16.0,67,0.00,,,0.00,186.000000,,2013-08-13 22:47:00,
2013-08-13 19:13:00,72.0,60.0,-100.00,NNW,340,6.0,16.0,67,0.00,,,0.00,186.000000,,2013-08-13 23:13:00,
2013-08-13 19:26:00,72.0,60.0,-100.00,NNW,340,6.0,16.0,67,0.00,,,0.00,186.000000,,2013-08-13 23:26:00,
2013-08-13 19:36:00,72.0,60.0,-100.00,NNW,340,6.0,16.0,67,0.00,,,0.00,186.000000,,2013-08-13 23:36:00,
2013-08-13 20:11:00,68.0,55.0,-100.00,North,355,7.0,18.0,64,0.00,,,0.00,135.000000,,2013-08-14 00:11:00,
2013-08-13 20:22:00,68.0,55.0,-100.00,North,355,7.0,18.0,64,0.00,,,0.00,135.000000,,2013-08-14 00:22:00,
2013-08-13 20:32:00,68.0,55.0,-100.00,North,355,7.0,18.0,64,0.00,,,0.00,135.000000,,2013-08-14 00:32:00,
2013-08-13 20:42:00,68.0,55.0,-100.00,North,355,7.0,18.0,64,0.00,,,0.00,135.000000,,2013-08-14 00:42:00,
2013-08-13 21:21:00,65.0,52.0,-100.00,North,358,8.0,15.0,62,0.00,,,0.00,47.000000,,2013-08-14 01:21:00,
2013-08-13 21:32:00,65.0,52.0,-100.00,North,358,8.0,15.0,62,0.00,,,0.00,47.000000,,2013-08-14 01:32:00,
2013-08-13 21:42:00,65.0,52.0,-100.00,North,358,8.0,15.0,62,0.00,,,0.00,47.000000,,2013-08-14 01:42:00,
2013-08-13 22:11:00,62.0,50.0,-100.00,North,1,7.0,15.0,64,0.00,,,0.00,0.000000,,2013-08-14 02:11:00,
2013-08-13 22:22:00,62.0,50.0,-100.00,North,1,7.0,15.0,64,0.00,,,0.00,0.000000,,2013-08-14 02:22:00,
2013-08-13 22:32:00,62.0,50.0,-100.00,North,1,7.0,15.0,64,0.00,,,0.00,0.000000,,2013-08-14 02:32:00,
2013-08-13 22:42:00,62.0,50.0,-100.00,North,1,7.0,15.0,64,0.00,,,0.00,0.000000,,2013-08-14 02:42:00,
2013-08-13 23:11:00,59.0,49.0,-100.00,NNW,338,5.0,13.0,69,0.00,,,0.00,0.000000,,2013-08-14 03:11:00,
2013-08-13 23:22:00,59.0,49.0,-100.00,NNW,338,5.0,13.0,69,0.00,,,0.00,0.000000,,2013-08-14 03:22:00,
2013-08-13 23:33:00,59.0,49.0,-100.00,NNW,338,5.0,13.0,69,0.00,,,0.00,0.000000,,2013-08-14 03:33:00,
2013-08-13 23:43:00,59.0,49.0,-100.00,NNW,338,5.0,13.0,69,0.00,,,0.00,0.000000,,2013-08-14 03:43:00,